Location: ????????
(56.1167°N, 38.6333°E)
Time: 22:05:35
(UTC+00:00)

MOS 1 Rocket - Pass Details

Date: 18 November 2025
Orbit: 610 x 813 km, 97.4° (Epoch: 06 December)

Event Time Altitude Azimuth Distance (km) Brightness Sun altitude
Rises 14:23:24 0° 142° (SE) 2,901 6.3 -9.6°
Reaches altitude 10° 14:25:38 10° 135° (SE) 2,018 5.4 -9.9°
Maximum altitude 14:29:45 42° 65° (ENE) 943 3.5 -10.5°
Drops below altitude 10° 14:34:06 10° 356° (N) 2,130 5.7 -11.1°
Sets 14:36:29 0° 349° (N) 3,084 6.6 -11.4°
